Grand Forks, ND

8:04 PM CDT on August 18, 2017 (GMT -0500)
Grand Forks International

Weather History for KGFK - November, 2011

Change the Weather History Date:

Saturday, November 5, 2011

  Actual Average Record
Temperature  
Mean Temperature 49 °F 32 °F  
Max Temperature 57 °F 42 °F 75 °F (1975)
Min Temperature 40 °F 23 °F -7 °F (1951)
Degree Days  
Heating Degree Days 16 33  
Month to date heating degree days 109 157  
Since 1 July heating degree days 804 1188  
Cooling Degree Days 0 0  
Month to date cooling degree days 0 0  
Year to date cooling degree days 538 379  
Moisture  
Dew Point 33 °F    
Average Humidity 57    
Maximum Humidity 67    
Minimum Humidity 47    
Precipitation  
Precipitation 0.00 in 0.04 in 0.85 in (2008)
Month to date precipitation 0.00 0.20  
Year to date precipitation 18.95 19.45  
Snow  
Snow 0.00 in 0.20 in 1.00 in (2015)
Month to date snowfall 0.0 0.8  
Since 1 July snowfall 0.0 2.3  
Since 1 September snowfall 0.0 2.3  
Snow Depth 0.00 in    
Sea Level Pressure  
Sea Level Pressure 29.57 in    
Wind  
Wind Speed 17 mph (SSE)    
Max Wind Speed 28 mph    
Max Gust Speed 35 mph    
Visibility 10 miles    
Events      
T = Trace of Precipitation, MM = Missing Value Source: NWS Daily Summary

Daily Weather History Graph

Daily Weather History Graph

Search for Another Location

Airport or City:

Trip Planner

Search our weather history database for the weather conditions in past years. The results will help you decide how hot, cold, wet, or windy it might be!

Date:

Astronomy

Nov. 05, 2011 Rise Set
Actual Time 8:19 AM CDT 6:04 PM CDT
Civil Twilight 7:46 AM CDT 6:37 PM CDT
Nautical Twilight 7:09 AM CDT 7:14 PM CDT
Astronomical Twilight 6:33 AM CDT 7:50 PM CDT
Moon 3:40 PM CDT (11/5) 3:10 AM CDT (11/5)
Length of Visible Light 10h 50m
Length of Day
9h 45m
Waxing Gibbous, 78% of the Moon is Illuminated
Nov 5
Waxing Gibbous
Nov 10
Full
Nov 18
Last Quarter
Nov 25
New
Dec 2
First Quarter

Hourly Weather History & Observations

Time (CDT) Temp. Windchill Dew Point Humidity Pressure Visibility Wind Dir Wind Speed Gust Speed Precip Events Conditions
12:53 AM 44.1 °F 35.7 °F 26.1 °F 49% 29.74 in 10.0 mi South 20.7 mph 27.6 mph N/A   Scattered Clouds
1:53 AM 42.1 °F 34.5 °F 26.1 °F 53% 29.73 in 10.0 mi SSE 15.0 mph - N/A   Partly Cloudy
2:53 AM 41.0 °F 33.1 °F 26.1 °F 55% 29.72 in 10.0 mi SSE 15.0 mph - N/A   Scattered Clouds
3:53 AM 39.9 °F 32.5 °F 27.0 °F 60% 29.71 in 10.0 mi SSE 12.7 mph - N/A   Mostly Cloudy
4:53 AM 39.9 °F 32.5 °F 28.0 °F 63% 29.70 in 10.0 mi South 12.7 mph - N/A   Overcast
5:53 AM 41.0 °F 34.3 °F 28.9 °F 62% 29.69 in 10.0 mi South 11.5 mph - N/A   Overcast
6:53 AM 42.8 °F 35.4 °F 30.2 °F 61% 29.65 in 10.0 mi South 15.0 mph 21.9 mph N/A   Overcast
7:53 AM 43.0 °F 35.4 °F 32.0 °F 65% 29.65 in 10.0 mi South 16.1 mph - N/A   Mostly Cloudy
8:53 AM 42.1 °F 34.5 °F 32.0 °F 67% 29.64 in 10.0 mi SSE 15.0 mph - N/A   Mostly Cloudy
9:53 AM 44.1 °F 36.8 °F 33.1 °F 65% 29.64 in 10.0 mi SSE 16.1 mph 23.0 mph N/A   Mostly Cloudy
10:53 AM 45.0 °F 38.2 °F 34.0 °F 65% 29.63 in 10.0 mi South 15.0 mph 24.2 mph N/A   Mostly Cloudy
11:53 AM 50.0 °F - 35.1 °F 57% 29.61 in 10.0 mi South 16.1 mph 26.5 mph N/A   Mostly Cloudy
12:53 PM 52.0 °F - 35.1 °F 53% 29.57 in 10.0 mi South 17.3 mph 26.5 mph N/A   Scattered Clouds
1:53 PM 53.6 °F - 35.6 °F 51% 29.53 in 10.0 mi SSE 25.3 mph 28.8 mph N/A   Mostly Cloudy
2:53 PM 55.9 °F - 36.0 °F 47% 29.52 in 10.0 mi SSE 25.3 mph 31.1 mph N/A   Mostly Cloudy
3:53 PM 55.9 °F - 36.0 °F 47% 29.50 in 10.0 mi SSE 26.5 mph 31.1 mph N/A   Mostly Cloudy
4:53 PM 55.9 °F - 36.0 °F 47% 29.48 in 10.0 mi SSE 17.3 mph 28.8 mph N/A   Mostly Cloudy
5:53 PM 54.0 °F - 35.1 °F 49% 29.46 in 10.0 mi SE 15.0 mph - N/A   Mostly Cloudy
6:53 PM 54.0 °F - 35.1 °F 49% 29.45 in 10.0 mi SSE 17.3 mph - N/A   Mostly Cloudy
7:53 PM 51.8 °F - 35.6 °F 54% 29.44 in 10.0 mi SE 11.5 mph - N/A   Mostly Cloudy
8:53 PM 50.0 °F - 35.1 °F 57% 29.45 in 10.0 mi SE 10.4 mph - N/A   Overcast
9:53 PM 50.0 °F - 35.6 °F 58% 29.42 in 10.0 mi SE 12.7 mph - N/A   Overcast
10:53 PM 53.6 °F - 39.2 °F 58% 29.40 in 10.0 mi SSE 18.4 mph - N/A   Overcast
11:53 PM 53.1 °F - 39.9 °F 61% 29.40 in 10.0 mi SSE 21.9 mph 32.2 mph N/A   Overcast